Weather History for KEWR - May, 2013

Change the Weather History Date:

Wednesday, May 1, 2013

  Actual Average Record
Temperature  
Mean Temperature 54 °F 58 °F  
Max Temperature 66 °F 68 °F 88 °F (2010)
Min Temperature 42 °F 49 °F 36 °F (1978)
Degree Days  
Heating Degree Days 11 8  
Month to date heating degree days 11 8  
Since 1 July heating degree days 4501 4728  
Cooling Degree Days 0 1  
Month to date cooling degree days 0 1  
Year to date cooling degree days 3 13  
Growing Degree Days 4 (Base 50)    
Moisture  
Dew Point 37 °F    
Average Humidity 47    
Maximum Humidity 71    
Minimum Humidity 22    
Precipitation  
Precipitation 0.00 in 0.12 in 2.17 in (1976)
Month to date precipitation 0.00 0.12  
Year to date precipitation 10.81 14.92  
Snow  
Snow 0.00 in 0.00 in 0.00 in (2002)
Month to date snowfall 0.0 0.0  
Since 1 July snowfall 29.5 28.5  
Snow Depth 0.00 in    
Sea Level Pressure  
Sea Level Pressure 30.43 in    
Wind  
Wind Speed 7 mph (East)    
Max Wind Speed 17 mph    
Max Gust Speed 23 mph    
Visibility 10 miles    
Events      
T = Trace of Precipitation, MM = Missing Value Source: NWS Daily Summary

Daily Weather History Graph

Daily Weather History Graph

Search for Another Location

Airport or City:

Trip Planner

Search our weather history database for the weather conditions in past years. The results will help you decide how hot, cold, wet, or windy it might be!

Date:

Astronomy

May. 01, 2013 Rise Set
Actual Time 5:55 AM EDT 7:53 PM EDT
Civil Twilight 5:25 AM EDT 8:22 PM EDT
Nautical Twilight 4:49 AM EDT 8:59 PM EDT
Astronomical Twilight 4:10 AM EDT 9:38 PM EDT
Moon 1:00 AM EDT (5/1) 11:30 AM EDT (5/1)
Length of Visible Light 14h 57m
Length of Day
13h 57m
Waning Gibbous, 59% of the Moon is Illuminated
May 1
Waning Gibbous
May 2
Last Quarter
May 9
New
May 18
First Quarter
May 25
Full

Hourly Weather History & Observations

Time (EDT) Temp. Windchill Dew Point Humidity Pressure Visibility Wind Dir Wind Speed Gust Speed Precip Events Conditions
12:51 AM 52.0 °F - 30.9 °F 45% 30.34 in 10.0 mi Calm Calm - N/A   Clear
1:51 AM 53.1 °F - 30.9 °F 43% 30.35 in 10.0 mi Calm Calm - N/A   Clear
2:51 AM 48.9 °F - 32.0 °F 52% 30.35 in 10.0 mi North 3.5 mph - N/A   Clear
3:51 AM 45.0 °F 41.2 °F 32.0 °F 60% 30.36 in 10.0 mi NNE 6.9 mph - N/A   Clear
4:51 AM 46.0 °F 41.9 °F 33.1 °F 61% 30.37 in 10.0 mi NNE 8.1 mph - N/A   Clear
5:51 AM 44.1 °F 40.1 °F 33.1 °F 65% 30.39 in 10.0 mi North 6.9 mph - N/A   Partly Cloudy
6:51 AM 48.0 °F - 35.1 °F 61% 30.41 in 10.0 mi NNE 8.1 mph - N/A   Partly Cloudy
7:51 AM 54.0 °F - 34.0 °F 47% 30.43 in 10.0 mi NNE 5.8 mph - N/A   Partly Cloudy
8:51 AM 57.0 °F - 33.1 °F 40% 30.44 in 10.0 mi NE 5.8 mph - N/A   Partly Cloudy
9:51 AM 61.0 °F - 28.9 °F 30% 30.44 in 10.0 mi NE 6.9 mph - N/A   Partly Cloudy
10:51 AM 62.1 °F - 26.1 °F 25% 30.45 in 10.0 mi NE 11.5 mph - N/A   Partly Cloudy
11:51 AM 64.0 °F - 25.0 °F 23% 30.44 in 10.0 mi ENE 11.5 mph - N/A   Clear
12:51 PM 64.0 °F - 39.0 °F 40% 30.44 in 10.0 mi South 9.2 mph - N/A   Partly Cloudy
1:51 PM 64.0 °F - 42.1 °F 45% 30.44 in 10.0 mi ESE 10.4 mph 19.6 mph N/A   Scattered Clouds
2:51 PM 63.0 °F - 43.0 °F 48% 30.43 in 10.0 mi ESE 10.4 mph 19.6 mph N/A   Partly Cloudy
3:51 PM 62.1 °F - 43.0 °F 50% 30.44 in 10.0 mi SE 12.7 mph 19.6 mph N/A   Partly Cloudy
4:51 PM 63.0 °F - 43.0 °F 48% 30.44 in 10.0 mi SE 10.4 mph 19.6 mph N/A   Scattered Clouds
5:51 PM 60.1 °F - 43.0 °F 53% 30.45 in 10.0 mi SE 9.2 mph 17.3 mph N/A   Scattered Clouds
6:51 PM 59.0 °F - 43.0 °F 55% 30.46 in 10.0 mi ESE 8.1 mph - N/A   Partly Cloudy
7:36 PM 55.4 °F - 44.6 °F 67% 30.46 in 10.0 mi SSE 5.8 mph - N/A   Partly Cloudy
7:51 PM 55.9 °F - 44.1 °F 64% 30.47 in 10.0 mi SSE 6.9 mph - N/A   Partly Cloudy
8:51 PM 54.0 °F - 44.1 °F 69% 30.48 in 10.0 mi SSE 4.6 mph - N/A   Partly Cloudy
9:51 PM 53.1 °F - 43.0 °F 69% 30.49 in 10.0 mi SSE 3.5 mph - N/A   Clear
10:51 PM 53.1 °F - 43.0 °F 69% 30.48 in 10.0 mi Calm Calm - N/A   Clear
11:51 PM 52.0 °F - 42.1 °F 69% 30.48 in 10.0 mi Calm Calm - N/A   Clear